Regional Weather Roundup
Issued by NWS Newport/Morehead, NC

Current Version | Previous Version | Text Only | Print | Product List | Glossary On
Versions: 1 2 3 4 5 6 7 8 9 10 11 12 13 14 15 16 17 18 19 20 21 22 23 24 25 26 27 28 29 30 31 32 33 34 35 36 37 38 39 40 41 42 43 44 45 46 47 48 49 50
959
ASUS42 KMHX 232012
RWRMHX
WEATHER ROUNDUP FOR EASTERN NORTH CAROLINA
NATIONAL WEATHER SERVICE NEWPORT/MOREHEAD CITY NC
400 PM EDT THU MAR 23 2017

NOTE: "FAIR" INDICATES FEW OR NO CLOUDS BELOW 12,000 FEET
WITH NO SIGNIFICANT WEATHER AND/OR OBSTRUCTIONS TO VISIBILITY

NCZ015>017-031-032-045>047-102-103-232100-
NORTH COAST

CITY           SKY/WX    TMP DP  RH WIND       PRES   REMARKS
EDENTON        NOT AVBL
ELIZABETH CITY SUNNY     46  24  42 NE9       30.60F
KITTY HAWK     NOT AVBL
MANTEO         SUNNY     41  24  49 NE14      30.60F

$$

NCZ045>047-081-094-103-104-232100-
CENTRAL COAST

CITY           SKY/WX    TMP DP  RH WIND       PRES   REMARKS
FRISCO         SUNNY     47  28  47 NE10G21   30.58F

$$

NCZ095-097-098-100-101-232100-
SOUTHERN COAST

CITY           SKY/WX    TMP DP  RH WIND       PRES   REMARKS
BEAUFORT       SUNNY     50  28  42 NE14      30.56F
CEDAR ISLAND   NOT AVBL
JACKSONVILLE   SUNNY     55  23  28 E8        30.53F
PINEY ISLAND   CLEAR    N/A N/A N/A E13       30.57F
WILMINGTON     SUNNY     52  31  44 E12       30.54F


$$

NCZ011>013-027>030-043-044-078>080-089-090>093-098-232100-
COASTAL PLAIN

CITY           SKY/WX    TMP DP  RH WIND       PRES   REMARKS
AHOSKIE        NOT AVBL
CLINTON        SUNNY     55  26  32 CALM      30.54F
ELIZABETHTOWN  SUNNY     56  21  25 N5        30.52F
GOLDSBORO      SUNNY     54  20  26 N5        30.53F
GREENVILLE     SUNNY     52  19  28 N3        30.55F
HAVELOCK       SUNNY     51  29  42 NE17      30.57F
KENANSVILLE    SUNNY     54  23  30 E3        30.54F
KINSTON        SUNNY     54  21  28 N3        30.56F
NEW BERN       SUNNY     52  23  32 VRB6      30.56F
RICHLANDS      SUNNY     53  24  32 VRB3      30.54F
ROCKY MOUNT    SUNNY     52  14  22 CALM      30.56F
WASHINGTON     SUNNY     50  27  40 E5        30.57F
WHITEVILLE     SUNNY     58  23  25 E8        30.51F

$$

AMZ130-135-150-152-154-156-158-170-250-252-270-ANZ085-086-088-633-658-670-232100-
MARINE OBSERVATIONS

STATION/POSITION TIME  TEMP    WIND        PRES    WAVE   SWELL
                       AIR SEA DIR/SP/G            HT/PER HT/PER
                 (UTC) (F)     (DEG/KT/KT) (MB)    (FT/S) (FT/S)
CHESAPEAKE LIGHT NOT AVBL
64 E VA BEACH    1950   38 50  360/ 12/ 14 1035.9    6/ 8   5/ 8
DUCK             1948   37 48   20/ 12/ 14 1035.9
2 E DUCK         2000      48                N/A     5/ 7   2/11
OREGON INLET     1942   41 49   10/ 10/ 16 1036.0
13E OREGON INLT  NOT AVBL
HATTERAS CG      1948   42 51   20/ 12/ 17 1035.1
DIAMOND BUOY     1950   46 74   20/ 16/ 21 1034.7    9/11   8/11
CAPE LOOKOUT     2000   45      30/ 15/ 18 1034.5
BEAUFORT LAB     1948   47 51   20/ 12/ 14 1034.0
30 SE NEW RVR IN 1908   48      50/ 17/ 27 1034.5
30 SE NEW RVR IN 1943      67                N/A     6/ 6   2/11
27 SE WRIGHTSVLE 1908   49 62   80/ 16/ 23 1033.6
5 SE WRIGHTSVLE  1908   48 57   90/ 14/ 21 1034.6
225 S CAPE HAT   1950   60 72   40/ 19/ 23 1029.7    7/10   7/10
41 SE CHARLESTON 1950   59 71   30/ 23/ 29 1030.1    7/ 7   2/10

$$




USA.gov is the U.S. government's official web portal to all federal, state and local government web resources and services.